Helicity
-23 11 -67 -95 -31 -9 -109 139 36 5 -4 9 15 1 48 75 89 76 45 84 86 11 44 164 132 254 242 137 100 48 -5 -34 2 -16 -54 -9 -50 10 7 25 52 19 20 21
24 -42 -4 -33 -42 -13 49 117 53 40 2 43 27 -152 6 106 197 73 49 87 29 4 58 161 242 238 266 276 180 111 82 67 21 -12 12 35 64 11 7 22 -15 -18 5 26
-12 56 -26 -9 71 5 95 75 76 64 54 -2 79 -43 -29 25 214 109 -33 -18 -17 -35 82 203 253 267 239 194 239 217 152 122 51 21 31 68 78 99 123 52 -6 -8 -16 6
4 60 112 146 75 190 103 59 93 127 59 53 37 44 35 43 -28 86 50 -19 -37 -24 34 187 285 283 267 212 187 187 192 146 82 61 78 61 52 84 58 83 28 -20 -17 -4
47 57 51 37 107 87 25 30 50 125 113 155 31 67 43 25 85 27 26 26 52 -62 87 190 293 288 257 217 209 172 159 153 94 44 15 29 -14 69 56 -21 -1 -10 -12 -14
-11 4 -24 -12 45 43 43 42 26 9 82 57 -11 141 32 89 89 88 7 -38 -15 68 73 173 267 264 286 307 362 265 192 101 85 26 -1 24 -11 43 98 -17 -48 -12 21 6
-16 -8 -28 12 -36 68 87 69 89 66 96 46 26 27 -5 -16 30 73 136 41 20 36 4 83 227 315 336 365 354 302 140 61 68 53 -3 -30 -20 -62 62 43 -20 -25 -25 1
34 27 -50 -17 97 79 72 93 96 22 56 33 1 11 -3 -27 -3 110 31 -25 -32 64 120 155 206 241 290 372 341 254 162 179 86 68 20 -9 -25 -18 -49 99 96 13 -1 7
79 -6 7 94 186 155 58 -14 27 73 73 70 35 74 8 -66 -2 -44 41 9 23 83 104 59 187 215 251 305 228 230 156 115 69 38 21 16 18 3 -47 70 104 44 -1 -27
85 78 23 5 34 76 105 19 8 46 86 69 50 46 21 -26 -0 -60 -62 16 73 53 64 59 155 239 174 191 195 184 167 112 122 44 38 64 24 53 -20 79 3 86 49 61
214 162 59 11 72 75 44 42 41 41 70 71 58 33 20 107 185 -25 -66 -76 -59 11 6 12 26 123 157 171 168 172 175 144 108 91 55 67 69 57 44 15 17 53 108 90
151 158 72 -5 25 53 140 76 68 49 19 44 21 12 7 81 99 21 -39 -92 -80 -48 -15 -0 40 -3 143 206 153 149 147 202 151 89 98 103 108 82 50 50 35 103 111 132
122 168 162 121 80 68 53 57 78 43 -9 -50 19 66 48 35 47 -38 -12 -30 -17 141 258 259 289 182 124 118 98 110 97 177 186 136 61 95 111 150 102 87 72 63 122 132
33 57 83 35 62 81 63 100 115 32 4 20 35 81 55 70 -15 -21 76 96 154 318 245 260 252 225 221 192 141 52 82 139 117 146 118 138 155 154 128 95 92 85 127 135
49 116 71 75 71 66 57 72 77 51 12 21 88 24 42 176 80 149 280 324 312 267 231 230 164 136 128 151 167 170 151 150 114 152 144 151 183 239 96 72 119 130 119 112
98 100 116 71 55 48 88 100 79 -15 -17 61 28 63 127 94 203 330 332 320 232 224 230 174 117 93 90 79 70 104 161 165 152 121 122 162 213 220 163 176 222 140 92 128
115 178 165 163 87 80 142 84 90 62 129 94 47 52 72 110 144 236 257 249 197 204 183 124 101 68 70 59 52 64 84 114 128 171 144 136 236 252 190 186 228 236 101 79
124 140 158 167 150 149 52 58 86 120 90 30 110 91 -17 85 202 255 252 227 199 173 186 154 110 60 47 25 32 30 38 65 90 111 92 82 164 140 165 187 230 245 113 98
90 108 211 232 195 155 146 130 121 127 73 68 89 183 159 158 211 219 192 242 218 189 225 177 127 60 43 37 35 37 34 21 47 65 70 64 92 101 115 153 150 198 164 96
130 100 131 214 277 251 54 78 77 132 115 118 49 179 104 104 121 99 224 270 194 266 264 215 172 115 80 45 45 64 42 28 20 -3 4 9 22 45 81 115 158 89 74 48
103 117 143 188 234 252 210 79 110 196 80 72 129 -8 29 67 105 217 267 248 308 313 292 232 174 122 74 31 39 57 44 36 14 16 16 20 14 7 11 19 15 48 78 52
73 39 80 138 215 182 119 93 203 193 -38 87 116 66 193 228 297 306 334 399 378 362 301 213 178 135 55 27 46 65 71 61 52 60 57 40 28 28 19 16 21 27 50 7
178 102 95 125 209 258 243 11 184 128 64 144 83 239 349 361 368 403 412 405 351 335 290 234 209 175 107 69 74 105 74 115 88 87 82 72 64 44 38 29 10 12 32 36
101 39 93 164 162 83 131 135 177 253 301 271 219 221 321 423 404 410 401 357 344 313 268 224 222 184 158 139 134 134 135 122 104 78 79 80 84 90 50 37 25 15 21 17
49 50 7 49 140 56 -19 -16 72 290 480 418 335 107 252 419 261 290 332 317 285 238 220 216 200 159 129 126 131 140 134 103 90 82 87 81 86 91 77 42 1 -18 -14 -16
53 41 23 -34 41 27 61 114 68 140 500 519 309 206 129 353 280 274 249 217 200 208 212 224 173 126 91 102 100 127 114 93 64 60 66 50 38 49 51 62 51 89 60 44
Wind_Speed
13 29 21 28 29 37 49 28 29 40 25 22 20 25 22 14 26 49 58 55 44 43 37 41 43 43 42 43 40 47 43 40 34 29 41 55 57 56 55 55 53 45 44 18
29 9 32 11 43 45 17 26 28 31 27 23 22 31 19 20 23 43 56 65 59 61 28 35 40 42 43 40 37 46 48 40 32 28 6 27 2 46 57 55 56 36 50 42
11 17 17 8 51 32 23 34 27 27 22 22 17 41 42 23 16 23 49 71 67 62 31 36 33 37 38 40 38 38 46 49 35 31 5 30 30 28 17 43 59 56 53 52
11 33 37 48 47 18 20 16 22 11 22 31 15 42 11 24 22 19 36 61 68 54 36 36 30 35 47 40 35 37 35 39 42 31 10 47 40 31 26 51 52 61 57 58
26 37 15 12 20 12 18 21 10 3 20 27 23 42 39 29 13 36 34 49 54 61 34 44 37 33 46 36 31 31 31 33 36 36 32 27 66 40 9 52 49 58 62 58
35 48 27 13 53 19 33 34 36 36 28 48 35 37 49 24 33 33 41 44 50 53 47 45 40 41 40 37 26 26 32 34 36 40 38 27 43 13 10 56 64 59 63 65
54 59 59 23 28 35 24 23 36 42 41 48 32 36 50 49 43 36 36 56 46 25 49 35 35 29 32 40 44 24 38 33 33 34 41 46 30 54 20 20 53 62 46 59
39 47 26 22 4 15 19 3 20 34 30 30 37 45 51 45 49 37 16 42 53 25 16 31 40 34 27 35 42 51 41 36 32 33 44 50 51 31 53 24 26 55 51 45
27 31 25 17 10 0 19 11 5 19 33 42 48 49 47 42 40 45 20 12 38 17 25 38 31 33 31 34 42 40 37 33 34 43 46 44 44 35 46 25 30 15 44 53
31 47 43 46 15 13 8 10 25 25 32 43 46 46 44 44 33 56 27 34 22 9 36 48 34 29 38 44 45 33 31 42 36 44 43 35 33 29 44 39 24 30 22 33
13 29 55 29 16 7 18 9 22 21 25 38 44 52 44 33 26 66 51 41 43 52 56 57 45 34 39 35 39 42 35 31 23 31 40 19 19 22 22 35 32 29 53 37
30 26 12 42 32 10 13 4 14 14 34 36 42 48 28 16 47 60 52 43 51 50 51 54 46 44 33 37 40 42 38 25 27 27 27 24 18 18 22 36 30 40 30 28
20 38 28 43 50 41 40 23 28 26 31 44 49 50 32 14 12 28 9 35 41 18 12 16 17 13 22 27 37 36 32 22 30 30 24 23 21 23 23 26 27 29 38 38
39 34 32 24 25 34 25 27 23 27 28 32 32 43 14 6 15 28 3 15 29 10 10 16 18 20 16 11 8 13 22 20 25 28 29 26 26 25 27 35 37 39 39 38
44 46 32 34 33 27 38 40 31 35 22 28 31 10 12 20 37 36 30 35 23 17 12 15 16 19 20 19 16 13 11 15 27 25 30 27 33 41 56 59 47 43 46 50
46 43 41 46 35 32 30 48 46 35 24 24 37 39 27 19 17 25 33 29 23 14 13 17 21 28 27 28 27 24 24 19 17 23 25 25 30 35 31 32 35 51 47 50
42 47 45 51 48 45 52 27 42 50 43 40 50 37 42 16 25 24 25 23 16 13 10 13 16 19 21 22 25 26 23 22 17 14 17 17 20 24 29 40 53 40 56 60
51 51 47 56 54 70 50 34 42 48 42 36 45 43 27 30 34 17 11 9 6 7 8 9 14 18 20 21 25 29 31 28 27 21 14 13 13 18 27 25 36 45 38 71
50 50 55 58 58 62 52 44 39 35 45 36 34 38 45 29 27 15 19 15 16 5 5 13 19 22 21 22 25 30 34 36 33 30 27 22 17 14 13 17 18 25 36 57
47 46 51 51 58 63 54 38 24 30 61 36 40 43 54 25 28 31 28 26 13 2 9 14 21 21 19 19 23 27 30 34 36 37 37 32 26 21 15 9 15 22 30 41
66 62 67 62 62 58 56 53 31 43 50 36 26 32 51 25 23 11 21 12 8 8 10 13 16 16 16 17 18 21 23 26 27 29 32 33 32 29 27 21 11 16 14 20
69 66 72 70 70 80 58 44 50 55 67 38 34 33 15 24 14 13 17 13 10 9 8 9 8 10 13 14 15 18 22 22 22 25 27 28 30 32 32 32 29 21 13 17
64 55 63 60 55 41 46 42 47 47 46 55 52 31 16 22 19 21 20 16 12 9 5 2 5 8 11 12 13 15 17 18 20 24 25 24 25 26 27 28 29 30 27 25
47 43 53 58 48 51 54 47 46 51 51 53 48 22 19 21 21 19 17 14 10 4 3 1 4 7 12 15 15 16 16 18 20 21 21 21 23 25 26 26 26 24 25 23
55 52 55 62 62 58 47 51 56 56 54 52 48 45 19 19 21 20 16 10 8 6 2 2 4 7 12 15 17 16 16 20 20 18 18 18 20 22 24 25 25 24 24 23
62 66 63 68 65 61 65 64 63 63 55 56 54 59 47 25 21 16 10 9 15 9 2 1 2 5 11 15 18 18 16 17 14 15 16 17 19 19 21 22 23 25 24 25
Wind_Direction
0 312 304 291 314 312 299 349 356 1 24 36 344 332 331 32 295 255 239 234 250 160 150 142 146 142 137 139 139 147 143 143 134 134 157 219 187 204 199 199 214 143 227 295
313 253 172 171 296 304 337 339 346 354 33 10 338 309 118 138 143 169 239 226 223 210 146 145 148 146 145 142 144 152 156 145 140 140 127 255 318 238 179 165 169 142 190 216
104 151 351 5 231 308 320 311 330 327 356 348 348 296 271 145 92 134 188 225 221 191 151 151 149 151 149 150 147 147 157 159 146 146 195 262 266 268 258 151 183 191 180 192
94 184 197 224 263 333 314 336 338 358 351 311 327 312 121 179 137 140 159 182 198 175 159 155 153 153 163 160 151 151 147 152 155 151 177 243 251 261 260 163 172 187 181 194
173 202 162 179 199 44 333 341 14 348 326 326 314 313 324 308 139 170 169 177 180 181 168 167 163 166 165 162 161 157 156 153 155 159 163 163 218 258 252 173 167 183 188 187
209 227 326 0 263 332 321 316 309 310 315 289 310 304 304 326 188 166 177 176 177 173 170 171 164 159 166 162 160 159 159 163 161 165 166 167 172 185 248 184 195 187 194 212
272 249 264 326 325 313 334 325 301 298 297 291 312 311 302 252 221 190 181 185 174 177 172 169 170 167 165 170 168 167 165 169 168 169 174 178 175 186 181 172 182 192 177 210
310 293 325 332 307 355 346 358 301 298 309 306 303 306 300 269 241 174 84 172 177 169 181 171 178 176 178 175 173 175 172 174 176 176 182 184 185 180 187 258 267 188 183 181
337 323 356 205 289 331 338 329 45 318 309 302 296 301 269 236 182 179 87 43 168 197 172 173 166 178 182 178 182 181 181 180 183 182 184 185 186 185 185 250 264 217 184 188
322 290 302 320 354 329 40 335 324 316 303 296 293 294 287 271 229 195 139 168 121 156 167 174 174 174 183 189 188 185 189 190 183 183 183 184 189 191 188 260 203 265 263 267
285 306 241 333 354 118 325 317 317 329 317 299 293 289 279 179 154 202 170 171 227 190 181 186 180 179 186 188 189 189 188 187 192 189 185 203 202 208 224 195 225 252 261 266
202 291 258 211 311 311 173 8 304 320 307 306 292 289 307 121 164 175 168 163 202 213 216 196 184 188 182 186 187 189 190 196 192 196 201 204 231 231 216 198 208 257 254 256
302 278 287 296 285 299 293 301 315 306 312 297 293 282 291 324 125 148 241 160 163 102 51 26 335 336 161 173 185 190 197 207 198 199 215 245 231 225 222 251 240 230 257 258
296 287 288 207 309 295 305 297 312 313 308 317 319 283 296 315 136 145 294 138 131 78 42 19 11 13 6 356 323 204 203 214 216 208 206 225 226 230 248 263 263 261 253 257
298 270 284 289 297 302 291 287 304 297 308 309 313 321 170 154 162 157 133 131 123 106 54 4 355 358 354 348 349 344 315 287 207 216 217 226 266 277 276 265 264 271 267 263
298 292 274 276 285 292 290 285 288 292 307 306 306 306 292 297 135 130 138 133 134 114 52 13 357 333 331 332 335 336 320 316 313 210 221 242 264 270 267 275 275 269 272 273
290 294 287 281 281 283 280 286 282 287 293 293 290 293 282 240 168 157 155 153 144 123 59 32 28 18 3 4 5 5 0 347 335 314 296 228 241 253 258 280 277 272 277 271
280 287 287 281 279 270 284 289 289 286 295 298 297 283 284 189 188 194 192 174 148 105 6 34 50 49 57 39 33 25 21 17 9 4 344 303 268 262 277 275 280 263 279 270
275 278 277 274 273 276 282 290 286 282 287 297 306 293 264 263 246 245 161 162 147 109 68 86 92 90 75 46 38 36 32 31 30 29 18 12 352 329 312 295 288 279 285 286
276 276 271 274 273 271 280 291 295 290 276 291 308 286 252 256 182 181 170 158 149 108 110 97 99 90 71 57 48 39 37 35 37 38 36 48 44 29 2 344 318 304 308 322
268 269 265 267 267 273 285 281 282 274 280 290 276 283 258 216 214 198 163 177 175 144 119 104 101 87 75 73 57 36 33 28 39 40 36 34 37 49 58 48 34 321 337 351
267 267 262 263 264 260 287 289 266 279 285 286 270 283 265 220 224 186 172 172 171 143 129 112 82 64 82 77 49 26 11 23 34 31 27 31 24 13 19 28 39 36 24 4
265 268 264 264 266 275 279 286 282 295 286 275 271 266 220 204 210 166 159 159 164 160 153 73 31 37 37 33 30 30 30 31 27 19 18 21 19 20 21 24 27 36 45 53
275 278 271 270 269 274 279 276 290 286 281 280 282 255 189 202 190 213 204 160 165 196 248 328 7 6 355 7 17 13 19 10 7 11 15 17 18 16 11 10 10 17 24 34
275 275 272 270 273 278 277 277 277 281 282 281 282 263 210 176 185 170 197 192 175 180 258 294 325 344 346 1 4 6 4 359 357 9 26 30 25 21 18 9 0 356 352 360
270 267 267 268 272 273 273 274 274 269 276 281 279 262 254 189 175 169 186 160 143 153 203 296 4 358 350 352 350 348 352 356 10 21 37 41 37 27 22 20 10 345 331 329